Punkttermin-Prognose für Kampen / Sylt
Modell: MOSMIX (Deutscher Wetterdienst)
Modelllaufzeit: 03 UTC
Aktualisierung: stündlich
Donnerstag - 02.04.2020
| Wetter - | Temperaturen | Wind | Niederschlag | Druck | Sonne
Zeit GZ | Bewölkung | TT MAX MIN TG TM | DD FF FX1 | RR1 RR24 | PPPP | SS1 SS24
02:00 Uhr | --- | --- --- --- --- --- | --- --- --- | --- | --- | ---
03:00 Uhr | --- | --- --- --- --- --- | --- --- --- | --- | --- | ---
04:00 Uhr | --- | --- --- --- --- --- | --- --- --- | --- | --- | ---
05:00 Uhr | --- | --- --- --- --- --- | --- --- --- | --- | --- | ---
06:00 Uhr | stark bewölkt | 6 --- --- 5 --- | W 33 48 | 0.0 | 1009 | 0.0
07:00 Uhr | wolkig | 6 --- --- 6 --- | W 33 48 | 0.0 | 1009 | 0.0
08:00 Uhr | wolkig | 6 --- 6 6 --- | W 35 50 | 0.0 | 1008 | 0.1
09:00 Uhr | wolkig | 7 --- --- 7 --- | SW 35 52 | 0.0 | 1008 | 0.3
10:00 Uhr | wolkig | 7 --- --- 8 --- | SW 39 48 | 0.0 | 1007 | 0.4
11:00 Uhr | wolkig | 7 --- --- 9 --- | SW 43 59 | 0.0 | 1006 | 0.5
12:00 Uhr | wolkig | 8 --- --- 10 --- | SW 44 63 | 0.0 | 1005 | 0.5
13:00 Uhr | wolkig | 8 --- --- 10 --- | SW 46 67 | 0.0 | 1005 | 0.4
14:00 Uhr | wolkig | 8 --- --- 10 --- | SW 46 67 | 0.0 | 1004 | 0.4
15:00 Uhr | wolkig | 8 --- --- 10 --- | SW 46 68 | 0.0 | 1003 | 0.4
16:00 Uhr | stark bewölkt | 8 --- --- 9 --- | SW 46 68 | 0.0 | 1003 | 0.3
17:00 Uhr | stark bewölkt | 7 --- --- 8 --- | W 44 65 | 0.0 | 1002 | 0.2
18:00 Uhr | stark bewölkt | 7 --- --- 7 --- | W 43 63 | 0.0 | 1002 | 0.2
19:00 Uhr | stark bewölkt | 6 --- --- 6 --- | W 41 61 | 0.0 | 1002 | 0.1
20:00 Uhr | stark bewölkt | 6 9 --- 5 --- | W 41 61 | 0.0 | 1001 | 0.1
21:00 Uhr | stark bewölkt | 6 --- --- 5 --- | W 41 61 | 0.0 | 1001 | 0.0
22:00 Uhr | wolkig | 6 --- --- 5 --- | W 41 61 | 0.0 | 1002 | 0.0
23:00 Uhr | wolkig | 6 --- --- 4 --- | W 43 63 | 0.0 | 1001 | 0.0
00:00 Uhr | wolkig | 5 --- --- 4 --- | W 44 67 | 0.0 | 1002 | 0.0
Freitag - 03.04.2020
| Wetter - | Temperaturen | Wind | Niederschlag | Druck | Sonne
Zeit GZ | Bewölkung | TT MAX MIN TG TM | DD FF FX1 | RR1 RR24 | PPPP | SS1 SS24
01:00 Uhr | wolkig | 5 --- --- 4 --- | W 46 68 | 0.0 | 1002 | 0.0
02:00 Uhr | wolkig | 5 --- --- 4 --- | W 48 68 | 0.0 | 1002 | 0.0
03:00 Uhr | wolkig | 5 --- --- 4 --- | W 48 70 | 0.0 | 1002 | 0.0
04:00 Uhr | wolkig | 5 --- --- 4 --- | NW 48 72 | 0.0 | 1003 | 0.0
05:00 Uhr | wolkig | 5 --- --- 4 --- | NW 48 72 | 0.0 | 1004 | 0.0
06:00 Uhr | wolkig | 5 --- --- 4 --- | NW 46 67 | 0.0 | 1004 | 0.0
07:00 Uhr | wolkig | 5 --- --- 4 --- | NW 46 67 | 0.0 | 1004 | 0.1
08:00 Uhr | wolkig | 5 --- 4 4 --- | NW 44 65 | 0.0 | 1005 | 0.2
09:00 Uhr | wolkig | 5 --- --- 5 --- | NW 43 63 | 0.0 | 1006 | 0.5
10:00 Uhr | wolkig | 6 --- --- 7 --- | NW 43 61 | 0.0 | 1007 | 0.6
11:00 Uhr | wolkig | 6 --- --- 8 --- | NW 41 59 | 0.0 | 1008 | 0.7
12:00 Uhr | leicht bewölkt | 7 --- --- 10 --- | NW 41 59 | 0.0 | 1009 | 0.8
13:00 Uhr | leicht bewölkt | 7 --- --- 10 --- | NW 39 56 | 0.0 | 1010 | 0.8
14:00 Uhr | wolkig | 7 --- --- 10 --- | NW 39 57 | 0.0 | 1010 | 0.8
15:00 Uhr | wolkig | 7 --- --- 10 --- | NW 37 56 | 0.0 | 1011 | 0.8
16:00 Uhr | wolkig | 7 --- --- 10 --- | NW 37 54 | 0.0 | 1012 | 0.7
17:00 Uhr | wolkig | 6 --- --- 8 --- | NW 35 52 | 0.0 | 1012 | 0.6
18:00 Uhr | wolkig | 6 --- --- 7 --- | W 33 52 | 0.0 | 1013 | 0.5
19:00 Uhr | wolkig | 5 --- --- 6 --- | W 32 50 | 0.0 | 1013 | 0.4
20:00 Uhr | wolkig | 4 8 --- 4 --- | W 32 48 | 0.0 | 1014 | 0.3
21:00 Uhr | wolkig | 4 --- --- 3 --- | W 30 46 | 0.0 | 1014 | 0.1
22:00 Uhr | wolkig | 4 --- --- 3 --- | W 28 44 | 0.0 | 1015 | 0.0
23:00 Uhr | wolkig | 4 --- --- 3 | W 28 43 | 0.0 | 1016 | 0.0
00:00 Uhr | wolkig | 4 --- --- 2 5 | W 26 --- | 0.0 0.0 | 1016 | 0.0 7.9
Samstag - 04.04.2020
| Wetter - | Temperaturen | Wind | Niederschlag | Druck | Sonne
Zeit GZ | Bewölkung | TT MAX MIN TG TM | DD FF FX1 | RR1 RR24 | PPPP | SS1 SS24
01:00 Uhr | wolkig | 4 --- --- 2 --- | W 26 --- | 0.0 | 1017 | 0.0
02:00 Uhr | wolkig | 4 --- --- 2 --- | W 26 --- | 0.0 | 1017 | 0.0
03:00 Uhr | wolkig | 4 --- --- 2 --- | W 24 --- | 0.0 | 1018 | 0.0
04:00 Uhr | wolkig | 4 --- --- 2 --- | W 24 --- | 0.0 | 1018 | 0.0
05:00 Uhr | wolkig | 4 --- --- 2 --- | W 22 --- | 0.0 | 1019 | 0.0
06:00 Uhr | wolkig | 4 --- --- 2 --- | W 22 --- | 0.0 | 1020 | 0.0
07:00 Uhr | wolkig | 4 --- --- 3 --- | W 20 --- | 0.0 | 1020 | 0.1
08:00 Uhr | wolkig | 4 --- 3 4 --- | W 20 --- | 0.0 | 1021 | 0.2
09:00 Uhr | wolkig | 5 --- --- 5 --- | W 20 --- | 0.0 | 1022 | 0.4
10:00 Uhr | wolkig | 6 --- --- 7 --- | W 22 --- | 0.0 | 1022 | 0.5
11:00 Uhr | wolkig | 6 --- --- 9 --- | W 22 --- | 0.0 | 1023 | 0.6
12:00 Uhr | wolkig | 7 --- --- 11 --- | SW 22 --- | 0.0 | 1023 | 0.6
13:00 Uhr | wolkig | 7 --- --- 11 --- | SW 22 --- | 0.0 | 1024 | 0.6
14:00 Uhr | wolkig | 8 --- --- 12 --- | SW 22 --- | 0.0 | 1024 | 0.7
15:00 Uhr | wolkig | 8 --- --- 12 --- | SW 24 --- | 0.0 | 1024 | 0.7
16:00 Uhr | wolkig | 8 --- --- 11 --- | SW 24 --- | 0.0 | 1025 | 0.7
17:00 Uhr | wolkig | 8 --- --- 10 --- | SW 22 --- | 0.0 | 1025 | 0.6
18:00 Uhr | wolkig | 7 --- --- 9 --- | SW 20 --- | 0.0 | 1025 | 0.5
19:00 Uhr | wolkig | 7 --- --- 7 --- | SW 18 --- | 0.0 | 1025 | 0.4
20:00 Uhr | wolkig | 6 9 --- 6 --- | SW 17 --- | 0.0 | 1025 | 0.2
21:00 Uhr | wolkig | 6 --- --- 5 --- | S 17 --- | 0.0 | 1026 | 0.1
22:00 Uhr | wolkig | 6 --- --- 4 --- | S 17 --- | 0.0 | 1026 | 0.0
23:00 Uhr | wolkig | 6 --- --- 4 | S 18 --- | 0.0 | 1026 | 0.0
00:00 Uhr | wolkig | 6 --- --- 4 6 | S 18 --- | 0.0 0.0 | 1026 | 0.0 6.8
Sonntag - 05.04.2020
| Wetter - | Temperaturen | Wind | Niederschlag | Druck | Sonne
Zeit GZ | Bewölkung | TT MAX MIN TG TM | DD FF FX3 | RR3 RR24 | PPPP | SS3 SS24
02:00 Uhr | wolkig | 6 --- --- 4 --- | SO 20 --- | 0.0 | 1026 | 0.0
05:00 Uhr | wolkig | 5 --- --- 4 --- | SO 24 --- | 0.0 | 1026 | 0.0
08:00 Uhr | wolkig | 6 --- 4 6 --- | SO 26 41 | 0.0 | 1026 | 0.3
11:00 Uhr | wolkig | 8 --- --- 11 --- | SO 26 41 | 0.0 | 1026 | 1.7
14:00 Uhr | leicht bewölkt | 11 --- --- 15 --- | S 26 --- | 0.0 | 1025 | 2.3
17:00 Uhr | leicht bewölkt | 11 --- --- 15 --- | S 24 --- | 0.0 | 1023 | 2.3
20:00 Uhr | leicht bewölkt | 10 13 --- 10 --- | SO 26 --- | 0.0 | 1021 | 1.7
23:00 Uhr | leicht bewölkt | 9 --- --- 7 8 | SO 26 --- | 0.0 0.0 | 1020 | 0.2 8.3
Montag - 06.04.2020
| Wetter - | Temperaturen | Wind | Niederschlag | Druck | Sonne
Zeit GZ | Bewölkung | TT MAX MIN TG TM | DD FF FX3 | RR3 RR24 | PPPP | SS3 SS24
02:00 Uhr | leicht bewölkt | 8 --- --- 6 --- | SO 26 41 | 0.0 | 1019 | 0.0
05:00 Uhr | leicht bewölkt | 8 --- --- 6 --- | SO 26 41 | 0.0 | 1018 | 0.0
08:00 Uhr | leicht bewölkt | 9 --- 8 9 --- | S 28 43 | 0.0 | 1018 | 0.4
11:00 Uhr | leicht bewölkt | 11 --- --- 14 --- | S 30 44 | 0.0 | 1017 | 2.0
14:00 Uhr | leicht bewölkt | 12 --- --- 18 --- | S 28 43 | 0.0 | 1016 | 2.4
17:00 Uhr | leicht bewölkt | 12 --- --- 17 --- | S 28 46 | 0.0 | 1016 | 2.2
20:00 Uhr | leicht bewölkt | 11 14 --- 11 --- | SW 24 43 | 0.0 | 1017 | 1.6
23:00 Uhr | leicht bewölkt | 10 --- --- 9 10 | SW 26 41 | 0.0 0.0 | 1018 | 0.2 8.8
Dienstag - 07.04.2020
| Wetter - | Temperaturen | Wind | Niederschlag | Druck | Sonne
Zeit GZ | Bewölkung | TT MAX MIN TG TM | DD FF FX3 | RR3 RR24 | PPPP | SS3 SS24
02:00 Uhr | leicht bewölkt | 9 --- --- 8 --- | SW 24 41 | 0.0 | 1019 | 0.0
05:00 Uhr | wolkig | 9 --- --- 8 --- | SW 24 41 | 0.0 | 1019 | 0.0
08:00 Uhr | leicht bewölkt | 9 --- 8 9 --- | SW 26 41 | 0.0 | 1021 | 0.4
11:00 Uhr | leicht bewölkt | 10 --- --- 13 --- | SW 26 41 | 0.0 | 1023 | 1.7
14:00 Uhr | leicht bewölkt | 11 --- --- 15 --- | SW 26 41 | 0.0 | 1024 | 2.2
17:00 Uhr | wolkig | 11 --- --- 13 --- | SW 24 --- | 0.0 | 1026 | 2.3
20:00 Uhr | wolkig | 9 12 --- 9 --- | SW 22 --- | 0.0 | 1027 | 1.5
23:00 Uhr | wolkig | 8 --- --- 7 9 | SW 20 --- | 0.0 0.0 | 1028 | 0.1 8.2
Mittwoch - 08.04.2020
| Wetter - | Temperaturen | Wind | Niederschlag | Druck | Sonne
Zeit GZ | Bewölkung | TT MAX MIN TG TM | DD FF FX3 | RR3 RR24 | PPPP | SS3 SS24
02:00 Uhr | wolkig | 8 --- --- 7 --- | SW 18 --- | 0.0 | 1029 | 0.0
05:00 Uhr | wolkig | 8 --- --- 6 --- | SW 20 --- | 0.0 | 1029 | 0.0
08:00 Uhr | wolkig | 8 --- 7 8 --- | SW 20 --- | 0.0 | 1029 | 0.4
11:00 Uhr | leicht bewölkt | 10 --- --- 13 --- | SW 20 --- | 0.0 | 1029 | 1.8
14:00 Uhr | leicht bewölkt | 11 --- --- 16 --- | SW 22 --- | 0.0 | 1028 | 2.2
17:00 Uhr | leicht bewölkt | 11 --- --- 15 --- | SW 22 --- | 0.0 | 1028 | 2.2
20:00 Uhr | leicht bewölkt | 10 13 --- 10 --- | SW 22 --- | 0.0 | 1027 | 1.7
23:00 Uhr | leicht bewölkt | 9 --- --- 8 9 | SW 22 --- | 0.0 0.0 | 1026 | 0.2 8.4
Donnerstag - 09.04.2020
| Wetter - | Temperaturen | Wind | Niederschlag | Druck | Sonne
Zeit GZ | Bewölkung | TT MAX MIN TG TM | DD FF FX3 | RR3 RR24 | PPPP | SS3 SS24
02:00 Uhr | wolkig | 9 --- --- 8 --- | SW 24 --- | 0.0 | 1026 | 0.0
05:00 Uhr | wolkig | 8 --- --- 7 --- | SW 24 --- | 0.0 | 1026 | 0.0
08:00 Uhr | wolkig | 9 --- 8 9 --- | SW 24 --- | 0.0 | 1026 | 0.4
11:00 Uhr | leicht bewölkt | 11 --- --- 14 --- | SW 22 --- | 0.0 | 1026 | 1.7
14:00 Uhr | leicht bewölkt | 12 --- --- 17 --- | SW 26 --- | 0.0 | 1025 | 2.0
17:00 Uhr | leicht bewölkt | 12 --- --- 16 --- | SW 24 --- | 0.0 | 1024 | 2.1
20:00 Uhr | leicht bewölkt | 10 14 --- 10 --- | SW 24 --- | 0.0 | 1024 | 1.6
23:00 Uhr | wolkig | 10 --- --- 8 10 | S 22 --- | 0.0 0.0 | 1024 | 0.2 7.9
Freitag - 10.04.2020
| Wetter - | Temperaturen | Wind | Niederschlag | Druck | Sonne
Zeit GZ | Bewölkung | TT MAX MIN TG TM | DD FF FX3 | RR3 RR24 | PPPP | SS3 SS24
02:00 Uhr | wolkig | 9 --- --- 8 --- | S 24 --- | 0.0 | 1024 | 0.0
05:00 Uhr | wolkig | 8 --- --- 8 --- | S 28 --- | 0.0 | 1023 | 0.0
08:00 Uhr | wolkig | 9 --- 8 9 --- | S 28 --- | 0.0 | 1023 | 0.3
11:00 Uhr | wolkig | 11 --- --- 13 --- | S 26 43 | 0.0 | 1024 | 1.4
14:00 Uhr | wolkig | 12 --- --- 16 --- | SW 28 44 | 0.0 | 1024 | 1.8
17:00 Uhr | wolkig | 12 --- --- 14 --- | SW 26 43 | 0.0 | 1024 | 1.8
20:00 Uhr | wolkig | 10 14 --- 10 --- | SW 24 41 | 0.0 | 1024 | 1.4
23:00 Uhr | wolkig | 9 --- --- 8 10 | SW 22 --- | 0.0 0.0 | 1024 | 0.2 6.8
Samstag - 11.04.2020
| Wetter - | Temperaturen | Wind | Niederschlag | Druck | Sonne
Zeit GZ | Bewölkung | TT MAX MIN TG TM | DD FF FX3 | RR3 RR24 | PPPP | SS3 SS24
02:00 Uhr | wolkig | 8 --- --- 8 --- | S 20 --- | 0.0 | 1024 | 0.0
05:00 Uhr | wolkig | 8 --- --- 7 --- | S 20 --- | 0.0 | 1024 | 0.0
08:00 Uhr | wolkig | 9 --- 8 9 --- | S 20 --- | 0.0 | 1023 | 0.4
11:00 Uhr | wolkig | 11 --- --- 13 --- | SW 22 --- | 0.0 | 1024 | 1.6
14:00 Uhr | leicht bewölkt | 12 --- --- 17 --- | SW 22 --- | 0.0 | 1023 | 2.1
17:00 Uhr | wolkig | 12 --- --- 15 --- | W 22 --- | 0.0 | 1022 | 1.8
20:00 Uhr | wolkig | 10 14 --- 10 --- | W 22 --- | 0.0 | 1023 | 1.3
23:00 Uhr | wolkig | 8 --- --- 7 10 | W 20 --- | 0.0 0.0 | 1023 | 0.2 7.4
Sonntag - 12.04.2020
| Wetter - | Temperaturen | Wind | Niederschlag | Druck | Sonne
Zeit GZ | Bewölkung | TT MAX MIN TG TM | DD FF FX3 | RR3 RR24 | PPPP | SS3 SS24
02:00 Uhr | wolkig | 8 --- --- 7 --- | W 20 --- | 0.0 | 1022 | 0.0
05:00 Uhr | wolkig | 7 --- --- 7 --- | W 20 --- | 0.0 | 1022 | 0.0
---:00 Uhr | --- | --- --- --- --- --- | --- --- --- | --- | --- | ---
---:00 Uhr | --- | --- --- --- --- --- | --- --- --- | --- | --- | ---
---:00 Uhr | --- | --- --- --- --- --- | --- --- --- | --- | --- | ---
---:00 Uhr | --- | --- --- --- --- --- | --- --- --- | --- | --- | ---
---:00 Uhr | --- | --- --- --- --- --- | --- --- --- | --- | --- | ---
---:00 Uhr | --- | --- --- --- --- --- | --- --- --- | --- --- | --- | ---


Wetter : Wetter/Bewölkung zum Termin (aktuelle Stunde) TT : Lufttemperatur in Grad Celsius zum Termin MAX : Maximum Lufttemperatur in Grad Celsius letzte 12 Stunden MIN : Minimum Lufttemperatur der vergangenen Nacht in Grad Celsius letzte 12 Stunden TG : Temperatur in 5cm überm Erdboden TM : Tagesmittel Lufttemperatur in Grad Celsius letzte 24 Stunden DD : Windrichtung zum Termin FF : Windgeschwindigkeit zum Termin FX1 : höchste Windspitze im Bezugszeitraum letzte 1 Stunde in km/h FX3 : höchste Windspitze im Bezugszeitraum letzte 3 Stunden in km/h PPPP : reduzierter Luftdruck auf Meereshöhe in hPa zum Termin RR1 : Niederschlagsmenge im Bezugszeitraum letzte 1 Stunde in mm = l/qm RR3 : Niederschlagsmenge im Bezugszeitraum letzte 3 Stunden in mm = l/qm RR24 : Niederschlagsmenge im Bezugszeitraum letzte 24 Stunden in mm = l/qm SS1 : Sonnenscheindauer letzte 1 Stunde SS3 : Sonnenscheindauer letzte 3 Stunden SS24 : Sonnenscheindauer letzte 24 Stunden --- : Wert nicht vorhanden